Tsageri

Georgia     42˚38′48″N   42˚46′05″E
temp.,
°C
wind,
m/s
gust,
m/s
humid.,
%
clouds,
%
prec.,
mm/h
press.,
hPa
HPBL,
m
28 november, sat
sat2801:00−3˚n33450 0.0 102931
04:00−3˚n33430 0.0 102832
07:00−2˚n33440 0.0 102832
10:00+1˚n33480 0.0 102751
13:00+7˚e11550 0.0 1024210
16:00+5˚ese11660 0.0 102422
19:00n33610 0.0 102627
22:00−1˚n334428 0.0 102631
29 november, sun
sun2901:00−2˚n334169 0.0 102631
04:00−2˚n334184 0.0 102631
07:00−2˚n334158 0.0 102532
10:00+1˚n334357 0.0 102650
13:00+6˚nne014268 0.0 1023253
16:00+5˚ese015434 0.0 102223
19:00n33530 0.0 102427
22:00n33480 0.0 102439
30 november, mon
mon3001:00−1˚n33470 0.0 102431
04:00−1˚n33470 0.0 102335
07:00−1˚n33470 0.0 102233
10:00+2˚n22450 0.0 102253
13:00+6˚sse11380 0.0 1019316
16:00+5˚sse11540 0.0 101876
19:00n22610 0.0 101924
22:00−1˚n33540 0.0 102030
1 december, tue
tue101:00−1˚n33510 0.0 102031
04:00−2˚n33510 0.0 102033
07:00−2˚n33530 0.0 102134
10:00n22530 0.0 102178
13:00+5˚se11490 0.0 1020537
16:00+3˚sse11610 0.0 1019261
19:00−1˚n22750 0.0 102224
22:00−2˚n336811 0.0 102340
2 december, wed
wed201:00−2˚n336434 0.0 102341
04:00−2˚n336049 0.0 102452
07:00−2˚n335795 0.0 102456
10:00n335097 0.0 102385
13:00+5˚e113896 0.0 1022416
16:00+4˚ese005196 0.0 102124
19:00n335896 0.0 102331
22:00−1˚n335662 0.0 102437